Regional Weather Roundup
Issued by NWS

Home | Current Version | Previous Version | Text Only | Print | Product List | Glossary Off
Versions: 1 2 3 4 5 6 7 8 9 10 11 12 13 14 15 16 17 18 19 20 21 22 23 24 25 26 27 28 29 30 31 32 33 34 35 36 37 38 39 40 41 42 43 44 45 46 47 48 49 50

000
ASUS43 KLSX 301057
RWRMO

WEATHER SUMMARY FOR MISSOURI
NATIONAL WEATHER SERVICE SPRINGFIELD MO
600 AM CDT SAT APR 30 2016

NOTE: "FAIR" INDICATES FEW OR NO CLOUDS BELOW 12,000 FEET WITH NO
       SIGNIFICANT WEATHER AND/OR OBSTRUCTIONS TO VISIBILITY.
       CURRENT SKY AND/OR WEATHER CONDITIONS ARE NOT AVAILABLE FOR
       CHILLICOTHE AND FARMINGTON.

MOZ001>031-035>038-043-044-053-054-301200-
...NORTHERN AND WESTERN MISSOURI...

CITY           SKY/WX    TMP DP  RH WIND       PRES   REMARKS
KANSAS CTY INT TSTM      56  54  93 E9        29.64F FOG
LEE`S SUMMIT   CLOUDY    59  57  93 SE8       29.64F
ST JOSEPH      TSTM      51  50  96 E14       29.67R FOG
CHILLICOTHE      N/A     53  51  93 E6        29.73F

$$
MOZ066>068-077>081-088>096-101>105-301200-
...SOUTHWEST MISSOURI...

CITY           SKY/WX    TMP DP  RH WIND       PRES   REMARKS
SPRINGFIELD    CLOUDY    63  59  87 S9        29.67R
JOPLIN         CLOUDY    62  60  93 S9        29.64S

$$
MOZ032>034-039>042-045>050-055>058-069>072-301200-
...CENTRAL MISSOURI...

CITY           SKY/WX    TMP DP  RH WIND       PRES   REMARKS
COLUMBIA       NOT AVBL
JEFFERSON CITY CLOUDY    59  57  93 E12       29.69F
ROLLA          CLOUDY    58  57  97 E12       29.67F
SEDALIA        CLOUDY    60  58  92 SE8       29.69R
WARRENSBURG    CLOUDY    59  55  88 E9        29.65F

$$
MOZ051-052-059>065-301200-
...EAST CENTRAL MISSOURI...

CITY           SKY/WX    TMP DP  RH WIND       PRES   REMARKS
ST LOUIS INTL  LGT RAIN  59  56  89 E13       29.82F FOG
ST CHARLES     LGT RAIN  57  57 100 E15       29.82F

$$
MOZ072>076-082>087-097>100-106>115-301200-
...SOUTH CENTRAL AND SOUTHEAST MISSOURI...

CITY           SKY/WX    TMP DP  RH WIND       PRES   REMARKS
CAPE GIRARDEAU RAIN      60  59  96 SE10      29.86S FOG
POPLAR BLUFF   LGT RAIN  61  59  93 E12       29.79F
WEST PLAINS    LGT RAIN  60  57  89 SE7       29.73F

$$



USA.gov is the U.S. government's official web portal to all federal, state and local government web resources and services.